[Iaude] MPEC V122: 2023 UH14 [a=2.37,e=0.50,i=3.5,H=20.6]
    mpec at marsden.cfa.harvard.edu 
    mpec at marsden.cfa.harvard.edu
       
    Wed Nov  8 12:20:07 EST 2023
    
    
  
M.P.E.C. 2023-V122                             Issued 2023 November 8, 17:18 UT
     The Minor Planet Electronic Circulars contain information on unusual
         minor planets, routine data on comets and natural satellites,
         and occasional editorial announcements.  They are published
    on behalf of Division F of the International Astronomical Union by the
          Minor Planet Center, Smithsonian Astrophysical Observatory,
                          Cambridge, MA 02138, U.S.A.
			  
             Prepared using the Tamkin Foundation Computer Network
                              MPC at CFA.HARVARD.EDU
            URL https://www.minorplanetcenter.net/    ISSN 1523-6714
                                   2023 UH14                                    
Observations:
     K23U14H KC2023 10 05.60732902 42 26.917+22 24 05.59         22.68GVEV122F52
     K23U14H  C2023 10 08.55099702 41 17.463+22 26 16.72         22.53GVEV122F52
     K23U14H  C2023 10 08.56264702 41 17.073+22 26 16.69         22.43GVEV122F52
     K23U14H  C2023 10 08.57425702 41 16.723+22 26 17.08         22.08GVEV122F52
     K23U14H  C2023 10 08.58591602 41 16.358+22 26 17.04         21.92GVEV122F52
     K23U14H* C2023 10 20.41073002 33 04.468+22 14 18.85         22.09GVEV122V00
     K23U14H  C2023 10 20.41817102 33 04.014+22 14 17.66         21.66GVEV122V00
     K23U14H  C2023 10 20.42466202 33 03.632+22 14 16.30         22.11GVEV122V00
     K23U14H  C2023 10 20.43016202 33 03.308+22 14 15.29         21.81GVEV122V00
     K23U14H  C2023 10 21.52203902 32 01.523+22 11 20.53         21.63wXEV122F51
     K23U14H  C2023 10 21.53381902 32 00.798+22 11 18.33         21.97wXEV122F51
     K23U14H  C2023 10 21.54767002 31 59.939+22 11 15.63         22.07wXEV122F51
     K23U14H  C2023 11 03.46418002 17 02.197+21 10 24.73         21.24GVEV122F52
     K23U14H  C2023 11 03.47723402 17 01.089+21 10 19.35         21.50GVEV122F52
     K23U14H  C2023 11 03.49021302 17 00.021+21 10 14.44         21.28GVEV122F52
     K23U14H  C2023 11 03.50334102 16 58.884+21 10 08.89         21.94GVEV122F52
     K23U14H  C2023 11 08.50238702 10 17.612+20 34 04.84         21.33wXEV122F51
     K23U14H  C2023 11 08.51477202 10 16.564+20 33 58.91         22.20wXEV122F51
     K23U14H  C2023 11 08.52709802 10 15.514+20 33 52.85         21.42wXEV122F51
Observer details:
F51 Pan-STARRS 1, Haleakala.  Observers J. Bulger, T. Lowe, P. Minguez, A.
    Schultz, I. Smith.  Measurers K. Chambers, T. de Boer, J. Fairlamb, H.
    Gao, M. Huber, C.-C. Lin, E. Magnier, Y. Ramanjooloo, R. Wainscoat, R.
    Weryk.  1.8-m Ritchey-Chretien + CCD.
F52 Pan-STARRS 2, Haleakala.  Observers J. Bulger, T. Lowe, P. Minguez, A.
    Schultz, I. Smith.  Measurers K. Chambers, T. de Boer, J. Fairlamb, H.
    Gao, M. Huber, C.-C. Lin, E. Magnier, Y. Ramanjooloo, R. Wainscoat, R.
    Weryk.  1.8-m Ritchey-Chretien + CCD.
V00 Kitt Peak-Bok.  Observer R. A. Mastaler.  Measurers M. J. Brucker, C. E.
    Woodward, D. Fay, J. B. Fazekas, D. C. Fuls, A. R. Gibbs, H. Groeller, J.
    K. Hogan, R. A. Kowalski, S. M. Larson, C. Lejoly, G. J. Leonard, R. A.
    Mastaler, R. S. McMillan, D. Rankin, R. L. Seaman, A. Serrano, F. C.
    Shelly, K. W. Wierzchos.  2.25-m reflector + 4x4K mosaic CCD.
Orbital elements:
2023 UH14                                                Earth MOID = 0.1874 AU
Epoch 2023 Sept. 13.0 TT = JDT 2460200.5                Bell                    
M 313.28353              (2000.0)            P               Q                  
n   0.27094241     Peri.  208.78289     -0.59726826     -0.79975452             
a   2.3652918      Node   277.95532     +0.74706819     -0.52728650             
e   0.5049994      Incl.    3.50374     +0.29182144     -0.28698721             
P   3.64           H   20.64          G   0.15           U   6                  
Residuals in seconds of arc
231005 F52  0.1+  0.0     231020 V00  0.0   0.1-    231103 F52  0.1+  0.2+
231008 F52  0.2+  0.1+    231020 V00  0.0   0.2-    231103 F52  0.5-  0.0
231008 F52  0.2-  0.1-    231021 F51  0.1+  0.0     231108 F51  0.0   0.0
231008 F52  0.1-  0.1+    231021 F51  0.1+  0.0     231108 F51  0.1+  0.1+
231008 F52  0.2-  0.1-    231021 F51  0.1+  0.2-    231108 F51  0.1+  0.1+
231020 V00  0.1+  0.2+    231103 F52  0.2+  0.0
231020 V00  0.0   0.2+    231103 F52  0.0   0.2-
Ephemeris:
2023 UH14                a,e,i = 2.37, 0.50, 4                   q = 1.1708
Date    TT    R. A. (2000) Decl.     Delta      r    Elong.  Phase     V
2023 10 09    02 41 05.2 +22 26 27   0.9506  1.8820   149.7    15.5    22.8
...
2023 10 24    02 29 32.2 +22 03 24   0.8024  1.7842   166.1     7.7    22.0
...
2023 11 01    02 20 13.0 +21 25 43   0.7426  1.7318   172.7     4.2    21.6
...
2023 11 07    02 12 20.1 +20 45 36   0.7068  1.6926   170.7     5.4    21.5
2023 11 08    02 10 59.0 +20 38 00   0.7017  1.6861   169.8     6.0    21.5
2023 11 09    02 09 37.7 +20 30 11   0.6967  1.6796   168.8     6.6    21.5
...
2023 11 15    02 01 34.1 +19 38 55   0.6715  1.6406   161.8    10.9    21.5
...
2023 11 23    01 51 47.1 +18 23 35   0.6491  1.5892   151.7    17.1    21.6
...
2023 12 08    01 40 11.4 +16 09 27   0.6349  1.4951   133.5    28.5    21.8
M. P. C. Staff               (C) Copyright 2023 MPC           M.P.E.C. 2023-V122
    
    
More information about the Iaude
mailing list